sat.trackr.live / text

‹ back to catalog

2023-003C

NORAD 55135 · 2023-003C

PAYLOAD ACTIVE UNKNOWN

§ Identity

Operator
Country
PRC
Launch date
2023-01-09
Launch site
JSC
Launch vehicle
Mass (kg)
RCS (m²)

External: N2YO · Heavens-Above · Gunter

§ Orbital elements

Epoch: 2026-09-21T23:06:45.747936Z

Period
92.32 min
Inclination
97.1443°
Eccentricity
0.0004050
Mean motion
15.59736074 rev/d
Perigee alt
385.7 km
Apogee alt
391.2 km
Semi-major
6,766.6 km
B*
2.5482e-4
RAAN
341.8449°
Arg perigee
120.3805°
Mean anomaly
239.7853°
Rev number
20,734

§ Raw data

2023-003C1 55135U 23003C   26264.96302949  .00020297  00000+0  25482-3 0  99922 55135  97.1443 341.8449 0004050 120.3805 239.7853 15.59736074207340

JSON: /api/v1/satellites/55135 · /tle

For live sub-satellite position, see the globe view (requires WebGL).

§ Visibility from observer

Set your observer location to see the next 7 days of passes ≥ 10°. The values pass through the URL so the page stays shareable.

No JS? Fill the form by hand. The geolocation button needs JavaScript.